Weather reports worldwide

Advertisment
Düsseldorf, Germany (10400): temperature & dewpoint: 10.07.2018 18:00:00 - 16.07.2018 18:00:00 (CEST)Düsseldorf, Germany (10400): temperature 5cm & temperature -5cm: 10.07.2018 18:00:00 - 16.07.2018 18:00:00 (CEST)Düsseldorf, Germany (10400): temperature -20cm & temperature -100cm: 10.07.2018 18:00:00 - 16.07.2018 18:00:00 (CEST)Düsseldorf, Germany (10400): wind speed & gusts: 10.07.2018 18:00:00 - 16.07.2018 18:00:00 (CEST)Düsseldorf, Germany (10400): wind direction: 10.07.2018 18:00:00 - 16.07.2018 18:00:00 (CEST)Düsseldorf, Germany (10400): reduced air pressure: 10.07.2018 18:00:00 - 16.07.2018 18:00:00 (CEST)Düsseldorf, Germany (10400): visibility: 10.07.2018 18:00:00 - 16.07.2018 18:00:00 (CEST)Düsseldorf, Germany (10400): sunshine duration: 10.07.2018 18:00:00 - 16.07.2018 18:00:00 (CEST)Düsseldorf, Germany (10400): precipitation: 10.07.2018 18:00:00 - 16.07.2018 18:00:00 (CEST)
Date & Time tt [°C] td [°C] tt 5cm [°C] tt -5cm [°C] tt -20cm [°C] tt -100cm [°C] ff [km/h] ff [kn] fx [km/h] fx [kn] dd ppp [hPa] vv [km] sd [min] rr [mm]
16.07.2018 18:00:00 30,0 6,1 32,4 35,6 29,9 21,8 5 3 18 10 NNW 1011,0 65 57 0,0
16.07.2018 17:00:00 29,3 6,1 31,8 36,8 29,4 21,8 11 6 24 13 N 1011,2 65 60 0,0
16.07.2018 16:00:00 29,7 6,1 34,2 36,9 28,6 21,8 11 6 22 12 WNW 1011,6 70 60 0,0
16.07.2018 15:00:00 29,8 7,1 35,8 36,1 27,7 21,8 9 5 22 12 - 1012,1 10 60 0,0
16.07.2018 14:00:00 28,4 7,2 35,3 34,5 26,8 21,7 8 4 21 11 - 1012,7 10 60 0,0
16.07.2018 13:00:00 27,8 7,9 31,9 32,5 25,8 21,7 5 3 18 10 NNW 1013,0 65 60 0,0
16.07.2018 12:00:00 27,1 10,5 32,0 30,0 25,0 21,7 5 3 18 10 - 1013,4 10 60 0,0
16.07.2018 11:00:00 24,7 9,7 29,1 27,1 24,4 21,7 6 3 13 7 N 1013,7 60 60 0,0
16.07.2018 10:00:00 22,9 9,8 25,1 24,5 24,0 21,7 4 2 8 4 NNW 1013,8 60 60 0,0
16.07.2018 09:00:00 21,0 10,7 22,8 22,8 23,9 21,7 5 3 9 5 NNE 1014,1 60 60 0,0
16.07.2018 08:00:00 18,1 10,7 18,4 21,8 24,0 21,7 6 4 9 5 NNW 1014,2 60 49 0,0
16.07.2018 07:00:00 15,6 9,8 14,9 21,0 24,4 21,6 4 2 8 4 NNE 1014,3 55 33 0,0
16.07.2018 06:00:00 13,8 10,0 10,8 21,2 24,8 21,6 4 2 11 6 NNE 1014,3 60 0 0,0
16.07.2018 05:00:00 14,9 9,8 12,8 21,7 25,3 21,6 5 3 8 4 NE 1014,3 10 0 0,0
16.07.2018 04:00:00 15,8 10,0 12,8 22,3 25,8 21,6 2 1 9 5 - 1014,5 10 0 0,0
16.07.2018 03:00:00 15,5 9,9 13,8 23,0 26,3 21,6 8 4 11 6 NNE 1014,8 10 0 0,0
16.07.2018 02:00:00 16,8 9,2 14,0 23,8 26,8 21,6 7 4 11 6 NE 1015,1 60 0 0,0
16.07.2018 01:00:00 17,9 8,7 14,2 24,7 27,4 21,6 9 5 13 7 NE 1015,2 60 0 0,0
16.07.2018 00:00:00 19,6 8,7 16,4 25,7 28,0 21,6 11 6 13 7 NE 1015,2 60 0 0,0
15.07.2018 23:00:00 21,1 8,1 14,9 27,1 28,6 21,5 8 4 15 8 NE 1015,1 60 0 0,0
15.07.2018 22:00:00 23,9 7,4 22,2 28,8 29,1 21,5 10 5 15 8 NE 1014,7 70 26 0,0
15.07.2018 21:00:00 25,6 7,5 25,2 30,7 29,4 21,5 13 7 24 13 NE 1014,4 10 60 0,0
15.07.2018 20:00:00 27,0 6,9 28,1 32,6 29,5 21,5 16 9 29 16 NE 1014,0 10 60 0,0
15.07.2018 19:00:00 27,7 7,4 30,2 34,1 29,4 21,5 16 9 28 15 ENE 1014,1 70 60 0,0
15.07.2018 18:00:00 28,0 6,6 31,4 35,2 29,1 21,5 17 9 32 17 NE 1014,3 65 60 0,0
15.07.2018 17:00:00 27,9 6,0 32,0 35,6 28,5 21,5 18 10 30 16 NNE 1014,7 65 60 0,0
15.07.2018 16:00:00 27,7 7,4 32,8 35,5 27,8 21,5 13 7 25 13 N 1015,1 65 60 0,0
15.07.2018 15:00:00 27,0 8,5 33,4 34,7 27,0 21,5 15 8 29 16 NNE 1015,9 65 60 0,0
15.07.2018 14:00:00 26,1 8,4 31,0 33,3 26,1 21,4 11 6 27 14 NE 1016,6 10 60 0,0
15.07.2018 13:00:00 26,3 9,5 31,6 31,3 25,3 21,4 13 7 28 15 NE 1017,0 10 60 0,0
15.07.2018 12:00:00 24,6 10,1 29,5 29,1 24,6 21,4 11 6 22 12 - 1017,4 10 60 0,0
15.07.2018 11:00:00 23,8 9,9 27,1 26,4 24,0 21,4 12 6 23 12 NNE 1017,5 60 60 0,0
15.07.2018 10:00:00 22,7 10,3 24,9 24,2 23,6 21,4 11 6 18 10 NNE 1017,6 50 60 0,0
15.07.2018 09:00:00 21,2 12,5 22,6 22,6 23,5 21,4 9 5 13 7 NE 1017,8 50 60 0,0
15.07.2018 08:00:00 17,7 11,9 18,1 21,5 23,7 21,3 7 4 9 5 NNE 1017,8 50 60 0,0
15.07.2018 07:00:00 14,9 10,9 14,7 20,7 24,0 21,3 5 3 9 5 NNE 1017,7 50 35 0,0
15.07.2018 06:00:00 13,4 10,9 11,9 20,8 24,4 21,3 5 3 5 3 N 1018,0 10 0 0,0
15.07.2018 05:00:00 13,7 10,4 12,4 21,3 24,9 21,3 5 3 8 4 N 1018,1 10 0 0,0
15.07.2018 04:00:00 13,8 10,5 11,9 21,9 25,4 21,3 8 4 9 5 N 1018,3 10 0 0,0
15.07.2018 03:00:00 14,8 10,5 12,4 22,7 25,9 21,3 5 3 9 5 N 1018,4 60 0 0,0
15.07.2018 02:00:00 16,3 10,6 13,1 23,5 26,5 21,3 8 4 11 6 NE 1018,4 10 0 0,0
15.07.2018 01:00:00 15,9 10,8 12,2 24,5 27,1 21,3 6 3 11 6 NNE 1018,6 60 0 0,0
15.07.2018 00:00:00 18,1 11,0 16,1 25,6 27,6 21,3 9 5 11 6 NNE 1018,5 10 0 0,0
14.07.2018 23:00:00 19,8 10,2 16,8 26,9 28,2 21,2 8 4 16 9 NNE 1018,3 10 0 0,0
14.07.2018 22:00:00 22,4 9,6 20,8 28,5 28,7 21,2 11 6 18 10 N 1018,0 60 25 0,0
14.07.2018 21:00:00 24,7 9,2 24,5 30,5 29,1 21,2 13 7 22 12 N 1017,6 10 60 0,0
14.07.2018 20:00:00 26,1 9,3 27,0 32,4 29,2 21,2 15 8 23 12 NNW 1017,5 10 60 0,0
14.07.2018 19:00:00 26,7 9,4 28,7 34,0 29,0 21,2 11 6 22 12 NW 1017,7 55 60 0,0
14.07.2018 18:00:00 27,1 8,5 30,7 34,9 28,7 21,2 11 6 26 14 N 1017,9 10 60 0,0
14.07.2018 17:00:00 26,7 10,0 31,0 35,4 28,1 21,2 13 7 25 14 N 1018,1 45 60 0,0
14.07.2018 16:00:00 26,9 10,9 31,5 35,2 27,3 21,2 11 6 23 13 NW 1018,4 40 60 0,0
14.07.2018 15:00:00 27,0 11,6 32,1 34,1 26,5 21,2 11 6 25 14 - 1018,9 10 56 0,0
14.07.2018 14:00:00 25,1 12,5 29,3 32,8 25,7 21,2 8 4 25 13 - 1019,4 10 56 0,0
14.07.2018 13:00:00 23,9 12,6 29,4 30,8 24,8 21,2 11 6 25 14 NNE 1019,9 30 60 0,0
14.07.2018 12:00:00 22,8 13,3 27,2 28,5 24,1 21,1 14 7 22 12 NNE 1020,3 30 60 0,0
14.07.2018 11:00:00 22,2 13,0 25,5 26,1 23,6 21,1 12 7 22 12 N 1020,7 25 60 0,0
14.07.2018 10:00:00 20,3 13,4 22,9 23,9 23,3 21,1 9 5 16 9 N 1020,7 10 60 0,0
14.07.2018 09:00:00 18,9 13,4 20,2 22,4 23,2 21,1 4 2 11 6 NNE 1020,5 22 60 0,0
14.07.2018 08:00:00 17,2 13,5 18,0 21,4 23,4 21,1 6 3 9 5 NNE 1020,3 22 43 0,0
14.07.2018 07:00:00 15,5 13,0 15,1 20,9 23,7 21,1 6 4 9 5 N 1020,2 20 0 0,0
14.07.2018 06:00:00 15,1 12,7 13,8 21,2 24,1 21,1 6 4 9 5 N 1020,0 35 0 0,0
14.07.2018 05:00:00 15,9 12,7 14,8 21,7 24,5 21,1 7 4 11 6 N 1020,2 35 0 0,0
14.07.2018 04:00:00 16,4 12,9 14,8 22,3 25,0 21,1 6 3 8 4 N 1019,9 40 0 0,0
14.07.2018 03:00:00 17,0 12,9 15,1 22,9 25,4 21,1 5 3 8 4 N 1019,8 40 0 0,0
14.07.2018 02:00:00 18,2 12,8 16,9 23,7 25,9 21,1 7 4 16 9 NNE 1020,0 45 0 0,0
14.07.2018 01:00:00 19,4 12,8 18,1 24,4 26,4 21,1 13 7 18 10 N 1020,0 10 0 0,0
14.07.2018 00:00:00 19,7 12,6 17,8 25,4 26,9 21,1 11 6 16 9 N 1019,8 10 0 0,0
13.07.2018 23:00:00 20,6 11,7 18,4 26,6 27,5 21,1 8 4 11 6 N 1019,5 50 0 0,0
13.07.2018 22:00:00 23,0 11,0 20,1 28,2 27,9 21,1 8 4 18 10 NNW 1019,2 60 12 0,0
13.07.2018 21:00:00 25,3 11,5 24,0 30,1 28,2 21,1 7 4 16 9 NNE 1018,7 60 55 0,0
13.07.2018 20:00:00 26,5 9,5 27,1 32,0 28,2 21,1 9 5 18 10 W 1018,7 50 60 0,0
13.07.2018 19:00:00 27,1 8,9 29,4 33,5 28,0 21,1 8 4 16 9 N 1019,0 10 60 0,0
13.07.2018 18:00:00 27,4 9,2 30,3 34,2 27,6 21,1 8 4 21 11 NNE 1019,2 50 60 0,0
13.07.2018 17:00:00 26,6 9,5 30,9 34,5 26,9 21,1 8 4 29 16 - 1019,5 10 60 0,0
13.07.2018 16:00:00 25,9 9,6 31,2 34,3 26,2 21,1 11 6 24 13 NW 1019,8 50 60 0,0
13.07.2018 15:00:00 26,2 9,8 31,4 33,4 25,3 21,1 12 6 22 12 NNW 1020,1 45 60 0,0
13.07.2018 14:00:00 24,9 9,9 29,5 31,9 24,3 21,1 11 6 29 16 NNW 1020,6 40 56 0,0
13.07.2018 13:00:00 23,4 9,1 27,8 29,9 23,4 21,1 13 7 25 13 NW 1021,0 40 60 0,0
13.07.2018 12:00:00 22,5 11,8 26,6 27,3 22,6 21,1 9 5 16 9 N 1021,1 35 60 0,0
13.07.2018 11:00:00 21,7 11,7 24,7 24,5 21,9 21,1 5 3 15 8 - 1021,3 10 60 0,0
13.07.2018 10:00:00 20,1 11,3 22,4 22,2 21,6 21,1 7 4 15 8 N 1021,2 40 60 0,0
13.07.2018 09:00:00 18,2 12,9 19,5 20,6 21,4 21,1 8 5 16 9 N 1021,2 30 60 0,0
13.07.2018 08:00:00 17,2 13,5 17,5 19,6 21,5 21,1 8 5 15 8 NNE 1021,0 22 60 0,0
13.07.2018 07:00:00 15,2 12,9 14,5 18,8 21,8 21,1 4 2 8 4 - 1020,9 10 34 0,0
13.07.2018 06:00:00 13,8 12,7 11,6 18,8 22,2 21,1 4 2 4 2 N 1020,9 15 0 0,0
13.07.2018 05:00:00 13,9 12,9 10,8 19,3 22,5 21,1 2 1 5 3 N 1020,5 10 0 0,0
13.07.2018 04:00:00 14,4 13,0 11,2 20,0 22,9 21,1 5 3 5 3 N 1020,4 25 0 0,0
13.07.2018 03:00:00 16,3 13,4 14,9 20,7 23,3 21,1 5 3 12 6 N 1020,2 30 0 0,0
13.07.2018 02:00:00 17,5 13,4 16,2 21,2 23,7 21,1 9 5 13 7 NNW 1020,0 40 0 0,0
13.07.2018 01:00:00 18,3 13,7 16,3 21,9 24,1 21,2 9 5 15 8 N 1019,8 50 0 0,0
13.07.2018 00:00:00 18,8 13,4 15,6 22,7 24,5 21,2 8 5 11 6 N 1019,6 50 0 0,0
12.07.2018 23:00:00 20,2 13,8 18,6 23,7 24,9 21,2 8 4 15 8 NNW 1019,4 50 0 0,0
12.07.2018 22:00:00 21,5 14,3 20,7 24,7 25,3 21,2 5 3 15 8 NNW 1018,7 10 0 0,0
12.07.2018 21:00:00 21,6 14,2 21,2 25,7 25,6 21,2 11 6 28 15 N 1018,3 10 0 0,0
12.07.2018 20:00:00 23,4 12,8 23,2 27,4 25,8 21,2 16 9 31 17 NNW 1017,9 40 0 0,0
12.07.2018 19:00:00 25,6 11,3 25,8 29,4 25,7 21,2 15 8 18 10 N 1017,3 10 19 0,0
12.07.2018 18:00:00 26,9 10,7 30,1 30,9 25,3 21,3 9 5 21 11 WNW 1017,4 45 57 0,0
12.07.2018 17:00:00 26,4 11,7 30,1 30,2 24,8 21,3 11 6 21 11 NNW 1017,7 10 33 0,0
12.07.2018 16:00:00 25,4 12,4 31,8 30,6 24,2 21,3 11 6 22 12 NE 1018,0 10 48 0,0
12.07.2018 15:00:00 25,0 12,7 28,6 29,3 23,5 21,3 6 3 21 11 N 1018,3 30 37 0,0
12.07.2018 14:00:00 23,2 13,5 26,3 28,5 22,8 21,3 9 5 21 11 NNW 1018,5 30 40 0,0
12.07.2018 13:00:00 23,1 14,6 27,7 26,8 22,1 21,3 12 7 21 11 NW 1018,7 30 45 0,0
12.07.2018 12:00:00 21,1 14,0 23,9 24,7 21,5 21,3 10 5 18 10 NW 1018,9 13 37 0,0
12.07.2018 11:00:00 19,4 14,2 21,7 22,8 21,1 21,4 9 5 15 8 W 1018,9 10 24 0,0
12.07.2018 10:00:00 18,6 14,5 20,5 21,6 20,7 21,4 4 2 8 4 NNW 1018,7 8 22 0,0
12.07.2018 09:00:00 17,1 14,1 17,1 19,7 20,6 21,4 4 2 15 8 - 1018,3 6 52 0,0
12.07.2018 08:00:00 16,5 13,9 16,0 18,7 20,6 21,4 12 7 16 9 N 1017,8 9 60 0,0
12.07.2018 07:00:00 15,7 13,7 14,8 17,9 20,9 21,4 9 5 15 8 NNW 1017,6 12 31 0,0
12.07.2018 06:00:00 14,8 13,8 13,1 18,1 21,2 21,4 4 2 10 5 NNW 1017,5 12 0 0,0
12.07.2018 05:00:00 16,0 14,5 14,8 18,9 21,4 21,4 8 4 11 6 NNW 1017,2 10 0 0,0
12.07.2018 04:00:00 16,5 15,5 15,7 19,4 21,6 21,5 5 3 8 4 WNW 1017,3 10 0 0,0
12.07.2018 03:00:00 16,8 15,8 16,5 19,7 21,8 21,5 4 2 5 3 NW 1017,4 12 0 0,0
12.07.2018 02:00:00 17,0 15,9 16,7 19,8 22,0 21,5 5 3 8 4 NW 1017,3 10 0 0,0
12.07.2018 01:00:00 17,1 15,5 16,5 19,8 22,3 21,5 6 3 13 7 NW 1017,3 16 0 0,0
12.07.2018 00:00:00 17,1 15,5 16,4 20,1 22,6 21,5 7 4 18 10 NW 1017,3 15 0 0,1
11.07.2018 23:00:00 17,4 15,7 16,7 20,8 22,9 21,5 13 7 22 12 NW 1017,3 10 0 0,2
11.07.2018 22:00:00 17,6 16,3 17,3 21,3 23,2 21,6 6 4 11 6 WNW 1016,9 18 0 0,0
11.07.2018 21:00:00 17,6 15,8 17,4 21,9 23,5 21,6 3 2 4 2 WSW 1016,6 18 0 0,0
11.07.2018 20:00:00 17,6 16,0 17,6 22,4 23,8 21,6 0 0 15 8 N 1016,5 18 0 1,6
11.07.2018 19:00:00 17,4 15,4 16,8 23,2 24,1 21,6 10 6 26 14 W 1016,4 12 0 0,6
11.07.2018 18:00:00 18,7 14,6 17,5 24,8 24,3 21,6 21 12 34 18 NW 1016,5 12 0 0,0
11.07.2018 17:00:00 18,4 14,3 18,9 25,0 24,5 21,7 8 4 42 23 NNE 1016,6 25 0 0,0
11.07.2018 16:00:00 20,8 11,4 21,7 27,1 24,3 21,7 13 7 31 17 NNW 1016,2 30 2 0,0
11.07.2018 15:00:00 21,5 10,0 23,1 29,2 23,7 21,7 19 10 35 19 WNW 1016,4 50 24 0,0
11.07.2018 14:00:00 21,9 10,4 24,7 27,9 23,0 21,7 22 12 34 18 NW 1016,8 10 22 0,0
11.07.2018 13:00:00 22,2 7,3 25,8 27,1 22,3 21,7 21 11 37 20 NW 1017,0 10 36 0,0
11.07.2018 12:00:00 20,8 7,7 22,8 25,6 21,5 21,8 16 9 34 18 WNW 1017,4 45 46 0,0
11.07.2018 11:00:00 19,7 9,5 22,7 22,9 20,8 21,8 11 6 23 13 N 1017,8 40 42 0,0
11.07.2018 10:00:00 17,7 10,4 19,8 20,9 20,3 21,8 11 6 21 11 NW 1017,9 10 60 0,0
11.07.2018 09:00:00 16,0 10,3 17,1 19,0 20,0 21,8 7 4 13 7 NW 1018,3 35 59 0,0
11.07.2018 08:00:00 14,8 9,8 15,0 17,6 20,0 21,8 6 3 9 5 NNW 1017,8 30 60 0,0
11.07.2018 07:00:00 12,0 9,6 11,2 16,5 20,3 21,8 2 1 9 5 N 1017,7 25 32 0,0
11.07.2018 06:00:00 11,5 9,2 9,6 16,5 20,6 21,8 7 4 11 6 NNW 1017,4 30 0 0,0
11.07.2018 05:00:00 11,7 8,9 10,0 16,8 21,0 21,8 7 4 11 6 NW 1017,3 50 0 0,0
11.07.2018 04:00:00 12,0 8,9 8,9 17,3 21,3 21,9 6 4 19 10 NW 1017,2 60 0 0,0
11.07.2018 03:00:00 13,0 8,4 11,5 17,8 21,7 21,9 12 7 16 9 N 1017,0 60 0 0,0
11.07.2018 02:00:00 13,6 8,2 11,4 18,4 22,1 21,9 10 5 14 8 N 1017,0 60 0 0,0
11.07.2018 01:00:00 14,5 8,2 12,5 19,1 22,5 21,9 9 5 17 9 NNW 1016,9 60 0 0,0
11.07.2018 00:00:00 15,9 7,7 14,5 20,0 22,8 21,9 16 9 26 14 N 1016,6 10 0 0,0
10.07.2018 23:00:00 16,9 7,9 14,9 21,0 23,1 21,9 11 6 29 16 N 1016,3 60 0 0,0
10.07.2018 22:00:00 18,6 8,0 18,1 21,8 23,4 21,9 11 6 34 18 N 1015,5 50 1 0,0
10.07.2018 21:00:00 19,4 7,2 19,0 22,8 23,5 21,9 21 11 32 17 N 1015,1 10 42 0,0
10.07.2018 20:00:00 18,7 11,6 18,9 23,2 23,5 21,9 13 7 38 21 NNE 1014,7 30 8 0,0
10.07.2018 19:00:00 18,6 14,9 20,9 23,2 23,5 21,9 28 15 41 22 W 1014,1 14 18 0,0
10.07.2018 18:00:00 16,9 14,2 16,5 23,8 23,5 22,0 28 15 44 24 WSW 1014,7 14 4 0,1

tt = temperature
td = dewpoint
tt 5cm = temperature 5cm
tt -5cm = temperature -5cm
tt -20cm = temperature -20cm
tt -100cm = temperature -100cm
ff = wind speed
fx = gusts
dd = wind direction
ppp = reduced air pressure
vv = visibility
sd = sunshine duration
rr = precipitation

Next stations